Platteville, WI

2:03 PM CST on January 17, 2018 (GMT -0600)
Platteville Municipal

Weather History for KPVB - January, 2013

Change the Weather History Date:

Friday, January 25, 2013

  Actual Average (KDBQ) Record (KDBQ)
Temperature  
Mean Temperature 22 °F -  
Max Temperature 30 °F 25 °F 56 °F (1981)
Min Temperature 14 °F 10 °F -23 °F (1936)
Degree Days  
Heating Degree Days 43    
Moisture  
Dew Point 11 °F    
Average Humidity 65    
Maximum Humidity 80    
Minimum Humidity 51    
Precipitation  
Precipitation 0.00 in - - ()
Sea Level Pressure  
Sea Level Pressure 30.07 in    
Wind  
Wind Speed 12 mph (WSW)    
Max Wind Speed 23 mph    
Max Gust Speed 31 mph    
Visibility 10 miles    
Events      
Averages and records for this station are not official NWS values.
T = Trace of Precipitation, MM = Missing Value Source: NWS Daily Summary

Daily Weather History Graph

Daily Weather History Graph

Search for Another Location

Airport or City:

Trip Planner

Search our weather history database for the weather conditions in past years. The results will help you decide how hot, cold, wet, or windy it might be!

Date:

Astronomy

Jan. 25, 2013 Rise Set
Actual Time 7:22 AM CST 5:06 PM CST
Civil Twilight 6:52 AM CST 5:36 PM CST
Nautical Twilight 6:17 AM CST 6:11 PM CST
Astronomical Twilight 5:44 AM CST 6:44 PM CST
Moon 4:03 PM CST (1/25) 6:02 AM CST (1/25)
Length of Visible Light 10h 44m
Length of Day
9h 43m
Waxing Gibbous, 98% of the Moon is Illuminated
Jan 25
Waxing Gibbous
Jan 26
Full
Feb 3
Last Quarter
Feb 10
New
Feb 17
First Quarter

Hourly Weather History & Observations

Time (CST) Temp. Windchill Dew Point Humidity Pressure Visibility Wind Dir Wind Speed Gust Speed Precip Events Conditions
12:15 AM 19.4 °F 8.6 °F 8.6 °F 63% 30.25 in 10.0 mi SE 9.2 mph - N/A   Overcast
12:35 AM 19.4 °F 8.6 °F 8.6 °F 63% 30.24 in 10.0 mi SE 9.2 mph - N/A   Overcast
12:55 AM 19.4 °F 7.9 °F 8.6 °F 63% 30.23 in 10.0 mi SE 10.4 mph - N/A   Overcast
1:15 AM 19.4 °F 8.6 °F 8.6 °F 63% 30.21 in 10.0 mi SE 9.2 mph - N/A   Overcast
1:35 AM 19.4 °F 8.6 °F 8.6 °F 63% 30.21 in 10.0 mi SE 9.2 mph - N/A   Overcast
1:55 AM 19.4 °F 7.9 °F 8.6 °F 63% 30.19 in 10.0 mi SE 10.4 mph - N/A   Overcast
2:15 AM 19.4 °F 6.0 °F 8.6 °F 63% 30.18 in 10.0 mi SE 13.8 mph - N/A   Overcast
2:35 AM 19.4 °F 6.6 °F 8.6 °F 63% 30.16 in 10.0 mi SE 12.7 mph - N/A   Overcast
2:55 AM 19.4 °F 9.5 °F 8.6 °F 63% 30.16 in 10.0 mi SE 8.1 mph - N/A   Overcast
3:15 AM 19.4 °F 8.6 °F 8.6 °F 63% 30.14 in 10.0 mi SSE 9.2 mph - N/A   Overcast
3:35 AM 19.4 °F 8.6 °F 8.6 °F 63% 30.14 in 10.0 mi SSE 9.2 mph - N/A   Overcast
3:55 AM 19.4 °F 7.2 °F 10.4 °F 68% 30.13 in 7.0 mi South 11.5 mph - N/A   Overcast
4:15 AM 19.4 °F 7.9 °F 12.2 °F 74% 30.14 in 7.0 mi South 10.4 mph - N/A   Overcast
4:35 AM 19.4 °F 7.2 °F 12.2 °F 74% 30.11 in 10.0 mi South 11.5 mph - N/A   Overcast
4:55 AM 19.4 °F 7.2 °F 12.2 °F 74% 30.10 in 10.0 mi South 11.5 mph - N/A   Overcast
5:15 AM 19.4 °F 7.2 °F 12.2 °F 74% 30.09 in 10.0 mi South 11.5 mph - N/A   Overcast
5:35 AM 19.4 °F 6.6 °F 12.2 °F 74% 30.08 in 10.0 mi South 12.7 mph - N/A   Overcast
5:55 AM 19.4 °F 7.9 °F 14.0 °F 80% 30.09 in 10.0 mi South 10.4 mph - N/A   Overcast
6:15 AM 19.4 °F 7.9 °F 14.0 °F 80% 30.07 in 10.0 mi South 10.4 mph - N/A   Overcast
6:35 AM 19.4 °F 7.2 °F 14.0 °F 80% 30.06 in 10.0 mi South 11.5 mph - N/A   Overcast
6:55 AM 19.4 °F 7.9 °F 14.0 °F 80% 30.05 in 10.0 mi South 10.4 mph - N/A   Overcast
7:15 AM 19.4 °F 6.6 °F 14.0 °F 80% 30.05 in 10.0 mi SSW 12.7 mph - N/A   Overcast
7:35 AM 19.4 °F 8.6 °F 14.0 °F 80% 30.04 in 10.0 mi SSW 9.2 mph - N/A   Overcast
7:55 AM 19.4 °F 8.6 °F 14.0 °F 80% 30.05 in 10.0 mi SSW 9.2 mph - N/A   Overcast
8:15 AM 21.2 °F 11.7 °F 14.0 °F 74% 30.04 in 10.0 mi SSW 8.1 mph - N/A   Overcast
8:35 AM 21.2 °F 9.5 °F 14.0 °F 74% 30.03 in 10.0 mi SW 11.5 mph - N/A   Mostly Cloudy
8:55 AM 21.2 °F 8.3 °F 12.2 °F 68% 30.03 in 10.0 mi SW 13.8 mph - N/A   Scattered Clouds
9:15 AM 23.0 °F 11.1 °F 12.2 °F 63% 30.02 in 10.0 mi WSW 12.7 mph - N/A   Clear
9:35 AM 23.0 °F 10.1 °F 12.2 °F 63% 30.02 in 10.0 mi WSW 15.0 mph - N/A   Clear
9:55 AM 23.0 °F 8.7 °F 10.4 °F 59% 30.02 in 10.0 mi WSW 18.4 mph 23.0 mph N/A   Clear
10:15 AM 24.8 °F 10.7 °F 10.4 °F 54% 30.01 in 10.0 mi WSW 19.6 mph 25.3 mph N/A   Clear
10:35 AM 24.8 °F 10.7 °F 10.4 °F 54% 30.01 in 10.0 mi WSW 19.6 mph 24.2 mph N/A   Clear
10:55 AM 26.6 °F 13.4 °F 12.2 °F 55% 29.99 in 10.0 mi WSW 18.4 mph 23.0 mph N/A   Clear
11:15 AM 26.6 °F 13.8 °F 12.2 °F 55% 29.99 in 10.0 mi WSW 17.3 mph - N/A   Clear
11:35 AM 26.6 °F 12.4 °F 12.2 °F 55% 29.98 in 10.0 mi West 21.9 mph - N/A   Clear
11:55 AM 28.4 °F 15.1 °F 12.2 °F 51% 29.97 in 10.0 mi West 20.7 mph - N/A   Mostly Cloudy
12:15 PM 28.4 °F 16.6 °F 14.0 °F 55% 29.95 in 10.0 mi WSW 16.1 mph - N/A   Scattered Clouds
12:35 PM 30.2 °F 18.5 °F 14.0 °F 51% 29.95 in 10.0 mi WSW 17.3 mph 24.2 mph N/A   Clear
12:55 PM 28.4 °F 17.5 °F 14.0 °F 55% 29.94 in 10.0 mi West 13.8 mph 26.5 mph N/A   Mostly Cloudy
1:15 PM 28.4 °F 14.4 °F 15.8 °F 59% 29.95 in 10.0 mi West 23.0 mph 28.8 mph N/A   Overcast
1:35 PM 28.4 °F 15.1 °F 17.6 °F 64% 29.96 in 10.0 mi West 20.7 mph 27.6 mph N/A   Overcast
1:55 PM 26.6 °F 13.1 °F 17.6 °F 69% 29.97 in 10.0 mi WNW 19.6 mph 23.0 mph N/A   Overcast
2:15 PM 26.6 °F 15.2 °F 15.8 °F 64% 29.97 in 10.0 mi West 13.8 mph 23.0 mph N/A   Overcast
2:35 PM 26.6 °F 14.7 °F 15.8 °F 64% 29.97 in 10.0 mi West 15.0 mph 24.2 mph N/A   Overcast
2:55 PM 26.6 °F 12.7 °F 15.8 °F 64% 29.97 in 10.0 mi West 20.7 mph 27.6 mph N/A   Overcast
3:15 PM 26.6 °F 13.4 °F 15.8 °F 64% 29.97 in 10.0 mi West 18.4 mph 31.1 mph N/A   Overcast
3:35 PM 26.6 °F 15.7 °F 15.8 °F 64% 29.98 in 10.0 mi WNW 12.7 mph 23.0 mph N/A   Overcast
3:55 PM 26.6 °F 13.1 °F 15.8 °F 64% 29.99 in 10.0 mi WNW 19.6 mph 28.8 mph N/A   Mostly Cloudy
4:15 PM 26.6 °F 13.1 °F 14.0 °F 59% 29.99 in 10.0 mi WNW 19.6 mph 28.8 mph N/A   Mostly Cloudy
4:35 PM 26.6 °F 14.3 °F 10.4 °F 51% 30.00 in 10.0 mi West 16.1 mph 27.6 mph N/A   Scattered Clouds
4:55 PM 23.0 °F 10.1 °F 8.6 °F 54% 30.01 in 10.0 mi WNW 15.0 mph - N/A   Clear
5:15 PM 23.0 °F 11.1 °F 8.6 °F 54% 30.02 in 10.0 mi West 12.7 mph 18.4 mph N/A   Clear
5:35 PM 21.2 °F 9.5 °F 8.6 °F 58% 30.04 in 10.0 mi West 11.5 mph 17.3 mph N/A   Clear
5:55 PM 21.2 °F 10.1 °F 8.6 °F 58% 30.04 in 10.0 mi West 10.4 mph - N/A   Clear
6:15 PM 21.2 °F 10.9 °F 8.6 °F 58% 30.06 in 10.0 mi West 9.2 mph - N/A   Clear
6:35 PM 19.4 °F 8.6 °F 8.6 °F 63% 30.07 in 10.0 mi West 9.2 mph - N/A   Clear
6:55 PM 19.4 °F 9.5 °F 8.6 °F 63% 30.08 in 10.0 mi West 8.1 mph - N/A   Clear
7:15 PM 19.4 °F 8.6 °F 8.6 °F 63% 30.09 in 10.0 mi WNW 9.2 mph - N/A   Clear
7:35 PM 19.4 °F 8.6 °F 8.6 °F 63% 30.09 in 10.0 mi WNW 9.2 mph - N/A   Clear
7:55 PM 19.4 °F 9.5 °F 8.6 °F 63% 30.11 in 10.0 mi WNW 8.1 mph - N/A   Clear
8:15 PM 17.6 °F 6.4 °F 8.6 °F 68% 30.11 in 10.0 mi WNW 9.2 mph - N/A   Clear
8:35 PM 17.6 °F 7.3 °F 8.6 °F 68% 30.13 in 10.0 mi WNW 8.1 mph - N/A   Clear
8:55 PM 17.6 °F 6.4 °F 8.6 °F 68% 30.13 in 10.0 mi WNW 9.2 mph - N/A   Clear
9:15 PM 17.6 °F 5.7 °F 6.8 °F 63% 30.15 in 10.0 mi NW 10.4 mph - N/A   Clear
9:55 PM 15.8 °F 4.2 °F 6.8 °F 68% 30.16 in 10.0 mi NW 9.2 mph - N/A   Clear
10:15 PM 15.8 °F 7.2 °F 6.8 °F 68% 30.17 in 10.0 mi WNW 5.8 mph - N/A   Clear
10:35 PM 14.0 °F 2.0 °F 5.0 °F 67% 30.19 in 10.0 mi WNW 9.2 mph - N/A   Clear
10:55 PM 14.0 °F 2.0 °F 5.0 °F 67% 30.20 in 10.0 mi NW 9.2 mph - N/A   Clear
11:15 PM 14.0 °F 2.9 °F 5.0 °F 67% 30.21 in 10.0 mi NW 8.1 mph - N/A   Clear
11:35 PM 14.0 °F 2.0 °F 5.0 °F 67% 30.21 in 10.0 mi NW 9.2 mph - N/A   Clear
11:55 PM 14.0 °F 5.1 °F 5.0 °F 67% 30.21 in 10.0 mi WNW 5.8 mph - N/A   Clear